FW4822 Weather Reports


Display with metric or nautical units.
time (UTC)temp
F
wind
direction
speed
MPH
gust
MPH
rain 1hr
in
rain 24hr
in
rain mn
in
humidity
%
barometer
mb
20260503030031 38 5 0.0 6.0 0.00 0.01 0.01 66 1015.2
20260503024526 38 24 1.0 7.0 0.00 0.01 0.01 64 1015.2
20260503023025 38 12 1.0 4.0 0.00 0.01 0.01 62 1015.2
20260503020020 39 29 2.0 7.0 0.00 0.01 0.01 60 1015.1
20260503014520 39 11 2.0 4.0 0.00 0.01 0.01 60 1015.1
20260503013033 39 13 0.0 5.0 0.00 0.02 0.01 60 1015.1
20260503010023 40 5 0.0 3.0 0.00 0.02 0.01 59 1014.8
20260503004524 40 15 0.0 3.0 0.00 0.02 0.01 59 1014.6
20260503003019 40 22 0.0 3.0 0.00 0.04 0.01 60 1014.5
20260503000026 41 47 1.0 7.0 0.00 0.04 0.01 61 1014.3
20260502234536 41 351 0.0 1.0 0.00 0.04 0.01 61 1014.2
20260502233031 41 351 0.0 3.0 0.00 0.06 0.01 60 1014.2
20260502230023 42 289 0.0 4.0 0.00 0.06 0.01 59 1014.0
20260502224519 42 24 0.0 6.0 0.00 0.06 0.01 59 1013.9
20260502223029 43 350 1.0 6.0 0.00 0.07 0.01 59 1013.8
20260502220024 44 289 1.0 4.0 0.00 0.07 0.01 57 1013.8
20260502214521 44 17 1.0 5.0 0.00 0.07 0.01 59 1013.8
20260502213022 44 22 3.0 5.0 0.00 0.10 0.01 58 1013.7
20260502210017 42 304 0.0 6.0 0.00 0.10 0.01 64 1013.9
20260502204516 43 294 1.0 8.0 0.00 0.10 0.01 64 1013.8
20260502203015 43 309 1.0 5.0 0.00 0.12 0.01 61 1013.9
20260502200024 45 329 0.0 5.0 0.00 0.12 0.01 57 1013.9
20260502194530 45 259 4.0 9.0 0.00 0.12 0.01 58 1014.1
20260502193022 44 337 2.0 9.0 0.00 0.14 0.01 59 1014.2
20260502190020 46 261 2.0 5.0 0.00 0.14 0.01 54 1014.5
20260502184521 44 260 0.0 6.0 0.00 0.14 0.01 57 1014.5
20260502183019 44 300 0.0 6.0 0.00 0.14 0.01 58 1014.5
20260502163016 45 28 2.0 7.0 0.00 0.14 0.01 55 1014.6
20260502123049 38 246 1.0 4.0 0.00 0.13 0.00 79 1015.3
20260502114537 35 30 1.0 5.0 0.00 0.13 0.00 85 1015.3
20260502113037 35 28 2.0 5.0 0.00 0.14 0.00 86 1015.5
20260502110034 33 321 0.0 4.0 0.00 0.14 0.00 90 1015.4
20260502104533 33 323 0.0 5.0 0.00 0.14 0.00 91 1015.2
20260502103029 32 313 0.0 3.0 0.00 0.14 0.00 92 1014.9
20260502070008 36 15 0.0 3.0 0.00 0.14 0.00 92 1013.8
20260502064505 35 15 1.0 3.0 0.00 0.14 0.00 92 1013.9
20260502063004 35 15 0.0 2.0 0.00 0.14 0.14 92 1014.0
20260502060002 36 15 0.0 2.0 0.00 0.14 0.14 91 1014.3
20260502054502 36 22 2.0 4.0 0.00 0.14 0.14 91 1014.1
20260502053113 36 10 0.0 3.0 0.00 0.14 0.14 90 1014.3
20260502051703 36 11 1.0 3.0 0.00 0.14 0.14 90 1014.1
20260502050005 36 11 2.0 5.0 0.00 0.14 0.14 90 1013.9
20260502044505 37 11 2.0 6.0 0.00 0.14 0.14 91 1013.4
20260502043005 37 37 3.0 7.0 0.00 0.14 0.14 93 1013.3
20260502040100 38 325 0.0 7.0 0.00 0.14 0.14 94 1013.7
20260502034600 38 323 1.0 5.0 0.00 0.14 0.14 94 1013.5
20260502033059 38 304 2.0 6.0 0.00 0.14 0.14 94 1013.4